Estación Meteorológica Peña el Pijo (Robertgarden) [ 07/15/20 05:31:28 CEST ]

Fecha Hora Presion(HPa) Temp (°C) Humedad % Rocio (°C) Viento ( m/s) Direccion Lluvia 1Hora(mm) Lluvia 24H(mm) LLuvia Total(mm)
2020-Apr-12 01:09:16 1010.200 - - - - W     39.88
2020-Apr-12 02:08:52 1009.700 - - - - W     39.88
2020-Apr-12 03:08:33 1009.500 - - - - W     39.88
2020-Apr-12 04:09:04 1009.100 - - - - W     39.88
2020-Apr-12 05:09:43 1009.000 - - - - W     39.88
2020-Apr-12 06:08:53 1008.200 - - - - W     39.88
2020-Apr-12 07:10:54 1008.100 - - - - W     39.88
2020-Apr-12 08:10:32 1008.100 - - - - W     39.88
2020-Apr-12 09:10:20 1008.100 - - - - W     39.88
2020-Apr-12 10:09:31 1008.100 - - - - W     39.88
2020-Apr-12 11:09:08 1007.700 - - - - W     39.88
2020-Apr-12 12:08:51 1007.400 - - - - W     39.88
2020-Apr-12 13:09:06 1006.600 - - - - W     39.88
2020-Apr-12 14:08:54 1005.500 - - - - W     39.88
2020-Apr-12 15:09:10 1005.200 - - - - W     39.88
2020-Apr-12 16:09:09 1004.600 - - - - W     39.88
2020-Apr-12 17:09:08 1003.600 - - - - W     39.88
2020-Apr-12 18:09:04 1003.200 - - - - W     39.88
2020-Apr-12 19:09:28 1003.200 - - - - W     39.88
2020-Apr-12 20:09:25 1003.400 - - - - W     39.88
2020-Apr-12 21:09:03 1003.400 - - - - W     39.88
2020-Apr-12 22:09:14 1003.700 - - - - W     39.88
2020-Apr-12 23:09:01 1002.800 - - - - W     39.88

Temperatura Máxima:    Temperatura Mínima:
Presión Máxima:1010.200 Hpa    Presión Mínima:1002.800 Hpa


Volver